Date,TemperatureHighF,TemperatureAvgF,TemperatureLowF,DewpointHighF,DewpointAvgF,DewpointLowF,HumidityHigh,HumidityAvg,HumidityLow,PressureMaxIn,PressureMinIn,WindSpeedMaxMPH,WindSpeedAvgMPH,GustSpeedMaxMPH,PrecipitationSumIn
2013-2-1,40.6,35.1,25.2,28.0,14.5,-0.2,81,46,18,30.04,29.54,7,1,17,0.00
2013-2-2,45.1,33.4,19.4,32.8,14.0,7.0,68,47,21,30.05,29.68,1,0,12,0.00
2013-2-3,51.1,41.1,33.1,36.5,29.4,23.3,91,65,38,29.67,29.50,4,0,11,0.00
2013-2-4,50.7,36.4,26.6,27.5,22.9,18.5,84,61,29,29.80,29.65,4,0,8,0.00
2013-2-5,62.4,46.8,39.4,36.7,31.8,27.1,81,57,30,29.65,29.53,2,0,7,0.00
2013-2-6,65.8,45.9,34.5,38.3,30.4,16.6,92,62,15,29.94,29.62,7,0,11,0.00
2013-2-7,49.5,41.7,35.8,42.7,36.4,29.3,99,82,65,29.99,29.65,2,0,5,0.38
2013-2-8,57.6,45.5,39.2,46.7,40.3,29.0,99,84,52,29.69,29.47,5,1,14,0.44
2013-2-9,56.1,39.5,29.5,29.5,24.3,13.3,88,60,19,30.01,29.69,4,0,11,0.00
2013-2-10,56.5,39.7,26.8,40.7,25.9,17.9,89,62,23,30.14,29.86,2,0,5,0.02
2013-2-11,62.8,55.4,43.7,62.2,54.3,41.2,99,96,91,29.86,29.57,2,0,10,0.05
2013-2-12,63.5,52.9,43.5,55.2,38.1,24.9,97,63,24,29.75,29.57,2,0,11,0.00
2013-2-13,48.6,45.7,41.5,47.0,44.3,37.4,99,95,71,29.62,29.28,2,0,7,0.28
2013-2-14,53.8,41.0,32.2,39.5,33.9,31.9,99,79,46,29.73,29.49,4,0,7,0.00
2013-2-15,65.8,45.3,32.2,45.2,34.4,29.7,99,72,27,29.75,29.59,3,0,8,0.00
2013-2-16,45.1,36.5,30.4,36.0,33.2,30.1,99,89,68,29.63,29.48,2,0,7,0.45
2013-2-17,39.4,30.0,24.1,30.1,16.0,5.8,99,60,25,29.92,29.57,7,0,17,0.02
2013-2-18,54.7,34.9,19.4,26.3,18.4,9.8,79,56,18,30.06,29.91,3,0,8,0.00
2013-2-19,52.2,42.9,32.5,51.2,37.8,25.2,99,82,59,29.90,29.50,4,0,12,0.07
2013-2-20,55.4,40.2,29.5,37.5,22.7,8.4,99,58,15,30.16,29.99,7,0,10,0.01
2013-2-21,58.1,40.3,26.2,27.6,20.2,9.1,76,50,14,30.27,30.13,2,0,7,0.00
2013-2-22,41.2,36.0,32.2,35.9,31.4,21.3,99,85,45,30.36,30.15,0,0,2,0.37
2013-2-23,43.2,39.8,35.8,42.9,39.6,35.5,99,99,99,30.13,29.83,2,0,4,0.84
2013-2-24,64.9,48.8,37.6,49.1,39.3,30.5,99,75,33,30.06,29.82,3,0,9,0.05
2013-2-25,43.3,37.0,32.5,32.2,25.4,21.7,86,64,43,30.25,30.07,2,0,9,0.00
2013-2-26,54.9,44.1,33.6,54.6,40.8,25.7,99,89,65,30.17,29.58,2,0,7,0.90
2013-2-27,63.3,49.2,41.0,45.6,41.1,36.2,99,77,38,29.81,29.64,4,0,11,0.00
2013-2-28,51.4,42.0,33.1,40.9,32.8,26.4,97,72,42,29.88,29.72,2,0,11,0.00